Weather History for Huron, SD

Change the Weather History Date:

Saturday, December 29, 2012

  Actual Average Record
Temperature  
Mean Temperature 5 °F 17 °F  
Max Temperature 17 °F 27 °F 59 °F (1999)
Min Temperature -8 °F 7 °F -33 °F (1917)
Degree Days  
Heating Degree Days 60 48  
Month to date heating degree days 1291 1321  
Since 1 July heating degree days 2977 3023  
Cooling Degree Days 0 0  
Month to date cooling degree days 0 0  
Year to date cooling degree days 1083 742  
Moisture  
Dew Point 3 °F    
Average Humidity 85    
Maximum Humidity 100    
Minimum Humidity 67    
Precipitation  
Precipitation T in 0.02 in 0.41 in (1907)
Month to date precipitation 1.12 0.49  
Year to date precipitation 19.66 22.87  
Snow  
Snow T in 0.30 in 3.80 in (1907)
Month to date snowfall 13.0 7.5  
Since 1 July snowfall 14.1 15.8  
Snow Depth 5.00 in    
Sea Level Pressure  
Sea Level Pressure 30.15 in    
Wind  
Wind Speed 2 mph (South)    
Max Wind Speed 8 mph    
Max Gust Speed 12 mph    
Visibility 7 miles    
Events Fog    
T = Trace of Precipitation, MM = Missing Value Source: NWS Daily Summary

Daily Weather History Graph

Daily Weather History Graph

Search for Another Location

Airport:

Trip Planner

Search our weather history database for the weather conditions in past years. The results will help you decide how hot, cold, wet, or windy it might be!

Date:

Astronomy

Dec. 29, 2012 Rise Set
Actual Time 8:08 AM CST 5:01 PM CST
Civil Twilight 7:35 AM CST 5:35 PM CST
Nautical Twilight 6:58 AM CST 6:11 PM CST
Astronomical Twilight 6:23 AM CST 6:47 PM CST
Moon 6:40 PM CST (12/29) 8:39 AM CST (12/29)
Length of Visible Light 9h 59m
Length of Day
8h 53m
Full, 98% of the Moon is Illuminated
Dec 29
Full
Jan 4
Last Quarter
Jan 11
New
Jan 18
First Quarter
Jan 26
Full

Hourly Weather History & Observations

Time (CST) Temp. Windchill Dew Point Humidity Pressure Visibility Wind Dir Wind Speed Gust Speed Precip Events Conditions
12:55 AM -2.9 °F - -7.1 °F 82% 30.16 in 6.0 mi Calm Calm - N/A   Clear
1:55 AM -5.1 °F - -7.1 °F 91% 30.17 in 6.0 mi Calm Calm - N/A   Clear
2:55 AM -2.0 °F - -5.1 °F 87% 30.16 in 7.0 mi Calm Calm - N/A   Clear
3:55 AM -7.1 °F - -9.9 °F 87% 30.18 in 8.0 mi Calm Calm - N/A   Clear
4:43 AM -5.8 °F - -7.6 °F 92% 30.07 in 9.0 mi Calm Calm - N/A   Mostly Cloudy
4:55 AM -2.0 °F - -6.0 °F 83% 30.17 in 9.0 mi Calm Calm - N/A   Overcast
5:55 AM 1.4 °F - -2.2 °F 85% 30.08 in 9.0 mi Calm Calm - N/A   Overcast
6:02 AM 3.2 °F - -0.4 °F 85% 30.08 in 9.0 mi Calm Calm - N/A   Overcast
6:30 AM -0.4 °F - -5.8 °F 78% 30.08 in 9.0 mi Calm Calm - N/A   Scattered Clouds
6:44 AM -0.4 °F - -4.0 °F 85% 30.08 in 9.0 mi Calm Calm - N/A   Mostly Cloudy
6:55 AM 1.0 °F - -4.0 °F 79% 30.17 in 8.0 mi Calm Calm - N/A   Mostly Cloudy
7:55 AM 3.9 °F - 1.0 °F 88% 30.17 in 7.0 mi Calm Calm - N/A   Overcast
8:45 AM 3.2 °F -6.2 °F 1.4 °F 92% 30.09 in 1.8 mi South 4.6 mph - N/A   Overcast
8:55 AM 5.0 °F -2.1 °F 3.0 °F 92% 30.18 in 0.8 mi South 3.5 mph - N/A   Overcast
9:05 AM 5.0 °F -5.6 °F 3.2 °F 92% 30.08 in 1.0 mi SSW 5.8 mph - N/A   Overcast
9:12 AM 6.8 °F -3.5 °F 3.2 °F 85% 30.08 in 0.2 mi South 5.8 mph - N/A Fog Light Freezing Fog
9:33 AM 6.8 °F - 6.8 °F 100% 30.09 in 0.5 mi Calm Calm - N/A Fog Light Freezing Fog
9:43 AM 6.8 °F -2.0 °F 6.8 °F 100% 30.10 in 2.0 mi South 4.6 mph - N/A   Overcast
9:55 AM 7.0 °F 0.1 °F 6.1 °F 96% 30.19 in 1.5 mi SSW 3.5 mph - N/A   Overcast
10:23 AM 8.6 °F - 8.6 °F 100% 30.11 in 3.0 mi Calm Calm - N/A   Mostly Cloudy
10:36 AM 8.6 °F - 8.6 °F 100% 30.10 in 5.0 mi Calm Calm - N/A   Scattered Clouds
10:55 AM 9.0 °F - 7.0 °F 92% 30.20 in 5.0 mi Calm Calm - N/A   Clear
11:55 AM 14.0 °F - 8.1 °F 77% 30.19 in 9.0 mi Calm Calm - N/A   Clear
12:55 PM 15.1 °F - 7.0 °F 70% 30.18 in 10.0 mi Calm Calm - N/A   Clear
1:55 PM 15.1 °F - 7.0 °F 70% 30.18 in 10.0 mi Calm Calm - N/A   Clear
2:55 PM 15.1 °F 9.4 °F 9.0 °F 77% 30.18 in 10.0 mi SW 3.5 mph - N/A   Clear
3:55 PM 15.1 °F - 8.1 °F 74% 30.19 in 10.0 mi Calm Calm - N/A   Clear
4:55 PM 15.1 °F 7.7 °F 9.0 °F 77% 30.20 in 10.0 mi SSW 4.6 mph - N/A   Clear
5:55 PM 8.1 °F - 6.1 °F 92% 30.19 in 10.0 mi Calm Calm - N/A   Clear
6:55 PM 8.1 °F - 5.0 °F 87% 30.20 in 10.0 mi Calm Calm - N/A   Clear
7:55 PM 7.0 °F - 3.0 °F 84% 30.20 in 10.0 mi Calm Calm - N/A   Clear
8:55 PM 10.0 °F 0.4 °F 6.1 °F 84% 30.19 in 10.0 mi South 5.8 mph - N/A   Clear
9:55 PM 8.1 °F -0.5 °F 3.9 °F 83% 30.19 in 10.0 mi South 4.6 mph - N/A   Clear
10:55 PM 7.0 °F -1.7 °F 3.9 °F 87% 30.19 in 10.0 mi South 4.6 mph - N/A   Clear
11:55 PM 10.0 °F -0.9 °F 7.0 °F 87% 30.18 in 10.0 mi South 6.9 mph - N/A   Clear